This is the latest recevied weather packets stored in our database for station/object BV1EV-2. If no packets are shown the sender has not sent any weather packets the latest 10 day(s).
| Time | Temp. | Humidity | Pressure | Rain* | Wind** | Luminosity | Snow |
|---|---|---|---|---|---|---|---|
| 1778107068 | 28.33° C | 49% | 1011.5 hPa | - | - | - | - |
| 1778105867 | 28.33° C | 51% | 1011.3 hPa | - | - | - | - |
| 1778104667 | 28.33° C | 51% | 1011 hPa | - | - | - | - |
| 1778103467 | 28.33° C | 51% | 1010.6 hPa | - | - | - | - |
| 1778102267 | 28.33° C | 51% | 1010.4 hPa | - | - | - | - |
| 1778101068 | 28.33° C | 52% | 1010.5 hPa | - | - | - | - |
| 1778099868 | 28.33° C | 52% | 1010.2 hPa | - | - | - | - |
| 1778098668 | 28.33° C | 49% | 1010.1 hPa | - | - | - | - |
| 1778097467 | 27.78° C | 47% | 1009.9 hPa | - | - | - | - |
| 1778096267 | 28.33° C | 45% | 1009.9 hPa | - | - | - | - |
| 1778095067 | 27.78° C | 46% | 1009.9 hPa | - | - | - | - |
| 1778093868 | 28.33° C | 48% | 1009.8 hPa | - | - | - | - |
| 1778092668 | 28.33° C | 46% | 1009.8 hPa | - | - | - | - |
| 1778091468 | 28.33° C | 45% | 1009.8 hPa | - | - | - | - |
| 1778090268 | 28.33° C | 38% | 1010 hPa | - | - | - | - |
| 1778089067 | 28.33° C | 43% | 1010 hPa | - | - | - | - |
| 1778087868 | 28.89° C | 48% | 1010.2 hPa | - | - | - | - |
| 1778086667 | 28.89° C | 45% | 1010.3 hPa | - | - | - | - |
| 1778085468 | 28.89° C | 48% | 1010.6 hPa | - | - | - | - |
| 1778084268 | 28.89° C | 41% | 1010.6 hPa | - | - | - | - |
| 1778083068 | 29.44° C | 46% | 1010.7 hPa | - | - | - | - |
| 1778081868 | 28.89° C | 50% | 1010.9 hPa | - | - | - | - |
| 1778080668 | 28.89° C | 51% | 1011.1 hPa | - | - | - | - |
| 1778079467 | 28.89° C | 48% | 1011.2 hPa | - | - | - | - |
| 1778078267 | 28.89° C | 49% | 1011.3 hPa | - | - | - | - |
* Rain since midnight (hover to see other rain measurements)
** Current wind speed in m/s (hover to see current wind gust speed)